Ludington, MI

11:33 AM EDT on July 26, 2017 (GMT -0400)
Mason County

Weather History for KLDM - September, 2012

Change the Weather History Date:

Monday, September 24, 2012

  Actual Average Record
Temperature  
Mean Temperature 49 °F -  
Max Temperature 60 °F 65 °F 86 °F (2007)
Min Temperature 38 °F 44 °F 31 °F (1989)
Degree Days  
Heating Degree Days 16    
Moisture  
Dew Point 36 °F    
Average Humidity 51    
Maximum Humidity 85    
Minimum Humidity 37    
Precipitation  
Precipitation 0.00 in - - ()
Sea Level Pressure  
Sea Level Pressure 29.98 in    
Wind  
Wind Speed 10 mph (WSW)    
Max Wind Speed 24 mph    
Max Gust Speed 33 mph    
Visibility 10 miles    
Events      
Averages and records for this station are not official NWS values.
T = Trace of Precipitation, MM = Missing Value Source: NWS Daily Summary

Daily Weather History Graph

Daily Weather History Graph

Search for Another Location

Airport or City:

Trip Planner

Search our weather history database for the weather conditions in past years. The results will help you decide how hot, cold, wet, or windy it might be!

Date:

Astronomy

Sep. 24, 2012 Rise Set
Actual Time 7:35 AM EDT 7:38 PM EDT
Civil Twilight 7:06 AM EDT 8:07 PM EDT
Nautical Twilight 6:33 AM EDT 8:40 PM EDT
Astronomical Twilight 5:58 AM EDT 9:15 PM EDT
Moon 4:33 PM EDT (9/24) 1:41 AM EDT (9/24)
Length of Visible Light 13h 00m
Length of Day
12h 02m
Waxing Gibbous, 70% of the Moon is Illuminated
Sep 24
Waxing Gibbous
Sep 29
Full
Oct 8
Last Quarter
Oct 15
New
Oct 21
First Quarter

Hourly Weather History & Observations

Time (EDT) Temp. Dew Point Humidity Pressure Visibility Wind Dir Wind Speed Gust Speed Precip Events Conditions
12:15 AM 38.3 °F 34.0 °F 84% 30.17 in 10.0 mi Calm Calm - N/A   Scattered Clouds
12:35 AM 38.7 °F 34.2 °F 84% 30.16 in 10.0 mi Calm Calm - N/A   Scattered Clouds
12:55 AM 39.2 °F 34.9 °F 84% 30.16 in 10.0 mi Calm Calm - N/A   Scattered Clouds
1:15 AM 38.5 °F 34.2 °F 84% 30.16 in 10.0 mi Calm Calm - N/A   Mostly Cloudy
1:35 AM 38.3 °F 34.2 °F 85% 30.15 in 10.0 mi Calm Calm - N/A   Mostly Cloudy
1:56 AM 38.8 °F 34.5 °F 84% 30.15 in 10.0 mi Calm Calm - N/A   Scattered Clouds
2:15 AM 46.9 °F 33.6 °F 60% 30.15 in 10.0 mi WNW 3.5 mph - N/A   Clear
2:35 AM 48.7 °F 32.0 °F 52% 30.15 in 10.0 mi WNW 5.8 mph - N/A   Clear
2:56 AM 50.4 °F 32.5 °F 50% 30.14 in 10.0 mi West 4.6 mph - N/A   Clear
3:15 AM 50.5 °F 31.6 °F 48% 30.14 in 10.0 mi West 4.6 mph - N/A   Scattered Clouds
3:35 AM 50.5 °F 30.2 °F 46% 30.13 in 10.0 mi West 6.9 mph - N/A   Clear
3:55 AM 50.5 °F 29.7 °F 45% 30.13 in 10.0 mi West 6.9 mph - N/A   Clear
4:15 AM 50.5 °F 30.2 °F 46% 30.13 in 10.0 mi West 6.9 mph - N/A   Clear
4:35 AM 50.5 °F 29.7 °F 45% 30.13 in 10.0 mi West 6.9 mph - N/A   Clear
4:55 AM 52.5 °F 29.7 °F 42% 30.13 in 10.0 mi West 8.1 mph 16.1 mph N/A   Clear
5:15 AM 50.5 °F 28.8 °F 43% 30.12 in 10.0 mi West 8.1 mph - N/A   Clear
5:55 AM 50.5 °F 28.8 °F 43% 30.11 in 10.0 mi West 10.4 mph 16.1 mph N/A   Clear
6:15 AM 50.9 °F 29.5 °F 44% 30.11 in 10.0 mi West 8.1 mph 16.1 mph N/A   Clear
6:35 AM 52.0 °F 30.9 °F 45% 30.10 in 10.0 mi West 6.9 mph - N/A   Clear
6:55 AM 52.5 °F 30.9 °F 44% 30.10 in 10.0 mi West 6.9 mph 18.4 mph N/A   Clear
7:15 AM 51.8 °F 30.6 °F 44% 30.10 in 10.0 mi West 12.7 mph 17.3 mph N/A   Clear
7:35 AM 52.2 °F 30.7 °F 44% 30.10 in 10.0 mi West 8.1 mph - N/A   Clear
7:55 AM 53.1 °F 31.5 °F 44% 30.10 in 10.0 mi West 12.7 mph 18.4 mph N/A   Clear
8:15 AM 53.1 °F 32.0 °F 45% 30.10 in 10.0 mi WSW 10.4 mph 16.1 mph N/A   Clear
8:35 AM 53.1 °F 32.5 °F 46% 30.09 in 10.0 mi WSW 11.5 mph 18.4 mph N/A   Clear
8:55 AM 53.1 °F 31.8 °F 44% 30.09 in 10.0 mi WSW 15.0 mph 19.6 mph N/A   Clear
9:15 AM 53.1 °F 31.5 °F 44% 30.09 in 10.0 mi West 15.0 mph 23.0 mph N/A   Clear
9:35 AM 53.1 °F 31.5 °F 44% 30.08 in 10.0 mi WSW 15.0 mph 23.0 mph N/A   Clear
9:55 AM 53.1 °F 32.7 °F 46% 30.07 in 10.0 mi WSW 16.1 mph 26.5 mph N/A   Clear
10:16 AM 54.3 °F 33.4 °F 45% 30.06 in 10.0 mi WSW 16.1 mph 24.2 mph N/A   Clear
10:35 AM 55.0 °F 33.3 °F 44% 30.06 in 10.0 mi WSW 18.4 mph 25.3 mph N/A   Clear
10:55 AM 55.6 °F 33.1 °F 43% 30.05 in 10.0 mi WSW 16.1 mph 24.2 mph N/A   Clear
11:16 AM 55.6 °F 34.2 °F 44% 30.04 in 10.0 mi WSW 13.8 mph 25.3 mph N/A   Clear
11:40 AM 55.6 °F 32.0 °F 41% 30.04 in 10.0 mi WSW 17.3 mph 26.5 mph N/A   Clear
11:55 AM 55.6 °F 32.0 °F 41% 30.03 in 10.0 mi WSW 16.1 mph 25.3 mph N/A   Clear
12:15 PM 57.6 °F 33.4 °F 40% 30.02 in 10.0 mi WSW 19.6 mph 26.5 mph N/A   Clear
12:35 PM 57.4 °F 32.2 °F 39% 30.02 in 10.0 mi WSW 16.1 mph 28.8 mph N/A   Clear
12:55 PM 58.1 °F 32.2 °F 38% 30.01 in 10.0 mi WSW 20.7 mph 29.9 mph N/A   Clear
1:15 PM 58.1 °F 31.8 °F 37% 30.00 in 10.0 mi SW 17.3 mph 25.3 mph N/A   Clear
1:35 PM 58.1 °F 32.0 °F 37% 29.99 in 10.0 mi SW 18.4 mph 28.8 mph N/A   Clear
1:55 PM 58.1 °F 31.6 °F 37% 29.97 in 10.0 mi SW 18.4 mph 27.6 mph N/A   Clear
2:15 PM 58.3 °F 32.5 °F 38% 29.96 in 10.0 mi SW 18.4 mph 27.6 mph N/A   Clear
2:35 PM 58.1 °F 33.8 °F 40% 29.95 in 10.0 mi SW 18.4 mph 27.6 mph N/A   Clear
2:55 PM 58.6 °F 32.9 °F 38% 29.93 in 10.0 mi SW 23.0 mph 32.2 mph N/A   Clear
3:15 PM 58.1 °F 36.3 °F 44% 29.92 in 10.0 mi SSW 18.4 mph 31.1 mph N/A   Clear
3:35 PM 58.8 °F 36.1 °F 43% 29.90 in 10.0 mi SW 24.2 mph 33.4 mph N/A   Clear
3:55 PM 58.3 °F 35.4 °F 42% 29.89 in 10.0 mi SSW 21.9 mph 32.2 mph N/A   Clear
4:15 PM 59.4 °F 36.1 °F 42% 29.87 in 10.0 mi SSW 20.7 mph 31.1 mph N/A   Clear
4:35 PM 58.6 °F 36.1 °F 43% 29.86 in 10.0 mi SSW 23.0 mph 29.9 mph N/A   Clear
4:55 PM 59.4 °F 37.2 °F 44% 29.85 in 10.0 mi SSW 19.6 mph 28.8 mph N/A   Clear
5:15 PM 59.4 °F 36.0 °F 42% 29.84 in 10.0 mi SSW 20.7 mph 32.2 mph N/A   Clear
5:35 PM 59.4 °F 37.4 °F 44% 29.83 in 10.0 mi SSW 19.6 mph 33.4 mph N/A   Clear
5:55 PM 59.4 °F 38.1 °F 45% 29.82 in 10.0 mi SSW 20.7 mph 33.4 mph N/A   Clear
6:15 PM 59.4 °F 39.6 °F 48% 29.81 in 10.0 mi SSW 21.9 mph 28.8 mph N/A   Clear
6:35 PM 59.4 °F 40.5 °F 50% 29.81 in 10.0 mi SSW 19.6 mph 27.6 mph N/A   Clear
6:55 PM 59.4 °F 41.9 °F 52% 29.81 in 10.0 mi SSW 21.9 mph 29.9 mph N/A   Clear
7:15 PM 59.2 °F 42.8 °F 55% 29.80 in 10.0 mi SSW 19.6 mph 27.6 mph N/A   Clear
7:35 PM 59.0 °F 43.7 °F 57% 29.80 in 10.0 mi SSW 17.3 mph 28.8 mph N/A   Clear
7:55 PM 58.5 °F 44.6 °F 60% 29.79 in 10.0 mi SSW 19.6 mph 26.5 mph N/A   Clear
8:15 PM 59.4 °F 46.0 °F 61% 29.79 in 10.0 mi SSW 19.6 mph 27.6 mph N/A   Clear
8:35 PM 59.4 °F 46.8 °F 63% 29.80 in 10.0 mi SSW 15.0 mph 24.2 mph N/A   Clear
8:56 PM 59.4 °F 47.3 °F 64% 29.80 in 10.0 mi SW 16.1 mph 24.2 mph N/A   Clear
9:15 PM 59.4 °F 47.5 °F 65% 29.80 in 10.0 mi SW 16.1 mph 25.3 mph N/A   Clear
9:35 PM 60.6 °F 48.6 °F 64% 29.80 in 10.0 mi SW 17.3 mph 24.2 mph N/A   Clear
9:55 PM 60.8 °F 47.5 °F 62% 29.80 in 10.0 mi SW 16.1 mph 26.5 mph N/A   Clear
10:15 PM 60.8 °F 47.8 °F 62% 29.80 in 10.0 mi SW 15.0 mph 25.3 mph N/A   Clear
10:35 PM 60.8 °F 47.8 °F 62% 29.79 in 10.0 mi SW 17.3 mph 24.2 mph N/A   Scattered Clouds
10:55 PM 60.8 °F 47.5 °F 62% 29.79 in 10.0 mi SW 17.3 mph 23.0 mph N/A   Scattered Clouds
11:15 PM 60.8 °F 47.1 °F 61% 29.79 in 10.0 mi SW 17.3 mph 25.3 mph N/A   Clear
11:36 PM 60.8 °F 46.4 °F 59% 29.79 in 10.0 mi SW 15.0 mph 25.3 mph N/A   Clear
11:55 PM 60.8 °F 46.4 °F 59% 29.78 in 10.0 mi SW 17.3 mph 24.2 mph N/A   Clear